{"data":{"norad_id":48672,"intl_designator":"2021-044AL","name":"STARLINK-2705","alt_names":[],"object_type":"PAYLOAD","status":"ACTIVE","operator":null,"country":"US","launch_date":"2021-05-26","launch_site_code":"AFETR","launch_vehicle":null,"mission":null,"orbit_class":"UNKNOWN","rcs_meters":null,"size_class":null,"mass_kg":null,"dimensions":null,"purposes":["comms"],"wikipedia_slug":null,"has_3d_model":false,"image_url":null,"decayed_at":null,"tle_current":{"epoch":"2026-09-19T16:47:20.627520Z","epoch_age_seconds":110462,"freshness":"FRESH","line1":"1 48672U 21044AL  26262.69954430  .00001137  00000+0  48399-4 0  9994","line2":"2 48672  53.1587 281.4367 0000887  87.9474 272.1629 15.31697952293686","mean_motion":15.31697952,"eccentricity":8.87e-5,"inclination_deg":53.1587,"raan_deg":281.4367,"arg_perigee_deg":87.9474,"mean_anomaly_deg":272.1629,"bstar":4.8399e-5,"rev_number":29368,"period_min":94.013313664077,"perigee_km":470.13860428289,"apogee_km":471.35359614487,"semimajor_km":6848.8831002139,"source":"CELESTRAK","updated_at":"2026-09-20T09:00:39.241669Z"}}}